OPS 4682 DEB, 38365

Orbit data source: Space-Track

OPS 4682 DEB, 38365 is space debris in LEO originally from a launch on Sat, 03 Apr 1965 UTC launched from the Air Force Western Test Range (AFWTR). Debris objects in space refer to the collection of defunct objects orbiting the Earth. Examples of debris include non-operational satellites, rocket bodies, and fragments generated from explosions, collisions, or faulty payload assembly.

Loading next visibility...
Identifier
38365, 1965-027BS
Orbit
LEO
Country
Flag of USUS
Related business
Manufacturer
Unknown
Mission
Spacecraft
Bus & Motor
Unknown
Mass
Unknown
Launch date (UTC)
1965-04-03 (61 years ago)
Launch vehicle
Unknown
Launch site
Air Force Western Test Range (AFWTR)
Object type
Payload
Rocket body
Debris
Shape & HBR
Unknown shape, 0.1 m
Radar Cross Section
Small (<0.1 m²)

Expand to show TLE details & history
Last TLE update: 6 days ago

TLE from 6 days ago
0 OPS 4682 DEB
1 38365U 65027BS  26257.74007517  .00000692  00000-0  22922-2 0  9994
2 38365  90.2470 358.0471 0027583 103.7354 256.6841 12.99325944643941
Epoch: 2026-09-14T17:45Z
TLE epoch observation values (Epoch: 2026-09-14T17:45:42.494Z)
Latitude
-0.00001°
Longitude
97.904°
Altitude
1,272.523 km
Speed
7.217 km/s
True Right ascension
23h 52m 11s
True Declination
0° 00' 00"
Sunlit
Object was in full shadow at epoch
Visualization orbit readout
Latitude
Unknown
Longitude
Unknown
Altitude
Unknown
Speed
Unknown
Apparent Right ascension
Unknown
Apparent Declination
Unknown
Sunlit
N/A
Visualization observer readout
Local Sidereal Time
10:57:55
Azimuth
Unknown
Elevation
Unknown
Doppler factor
Unknown
Orbital elements
Apogee altitude
1,282.93 km
Perigee altitude
1,240.783 km
Semi-major axis
7,639.994 km
Eccentricity
0.00276
Inclination
90.247°
RAAN
358.0471°
Arg. of periapsis
103.7354°
True anomaly
256.37677°
Mean anomaly
256.6841°
Eccentric anomaly
256.53041°
Mean motion
3.25015 °/min
Orbital period
110.76 mins
BSTAR
0.0022922
Loading maneuver chart data...
Computing Atmospheric mass density...
Loading historical data...
Loading historical data...
Loading historical data...
Loading historical data...
Loading historical data...
Loading historical data...
Loading historical data...

Documentation

Showing up to 5 results
|